Find STARLINK-37719

NORAD ID: 799501190 Int'l Des: 2026-160N Constellation: starlink operational

Current View

Loading 3D Globe...

About STARLINK-37719

STARLINK-37719 (NORAD 799501190) is a starlink constellation satellite launched Jul 9, 2026

About STARLINK-37719

Description loading...

Upcoming Passes

Passes for default location (London). Set your location on the main map for personalized predictions.

Altitude History

Loading altitude history...

Two-Line Element Set

1 99999C 2026160N 26195.42548610 .00475720 00000-0 611240-4 0 1956
2 99999 70.0023 28.5072 0010012 258.9325 171.0717 16.06641478 19
Epoch: Jul 14, 2026 • Age: 6 hours